Location: Arclight Observatory
(36.5667°N, 87.3333°W)
Time: 08:37:35
(UTC-06:00)

Daily predictions for brighter satellites

Satellite Brightness Start Highest point End
(mag) Time Altitude Azimuth Time Altitude Azimuth Time Altitude Azimuth
Cosmos 2237 Rocket 2.2 17:53:18 10° NNW 17:58:55 68° ENE 18:04:30 10° SSE
USA 215 3.8 17:52:56 10° ENE 17:58:58 39° SE 18:04:58 10° SSW
Tiangong 2 1.6 17:59:20 10° WNW 18:02:24 44° NNE 18:05:28 10° E
SL-16 R/B 3.0 17:57:46 10° N 18:02:41 29° ENE 18:07:34 10° ESE
NOSS 3-2 (C) 3.9 17:59:22 10° SW 18:05:11 66° NW 18:11:37 10° NNE
FREGAT/IRIS 4.2 18:03:42 10° ESE 18:05:38 16° ENE 18:07:33 10° NNE
Cosmos 44 Rocket 4.5 18:01:44 10° N 18:05:54 25° NE 18:10:07 10° ESE
H-2A R/B 3.4 18:04:46 10° SE 18:08:19 33° ENE 18:11:51 10° N
Cosmos 1674 Rocket 3.9 18:04:35 10° N 18:08:43 42° E 18:12:48 10° SSE
Cosmos 2297 Rocket 2.4 18:03:28 10° SSW 18:09:07 78° WNW 18:14:48 10° NNE
CZ-4 R/B 3.1 18:05:29 10° SSW 18:09:19 39° W 18:13:05 10° NNW
Meteor 1-14 Rocket 4.5 18:04:55 10° SSE 18:10:25 50° E 18:16:05 10° NNE
MOS 1-B Rocket 4.0 18:04:51 10° SSE 18:11:26 82° ENE 18:17:16 10° NNW
IUS-18 SRM-1 4.1 18:11:11 10° SSW 18:12:13 12° S 18:13:24 10° SSE
Cosmos 1908 Rocket 4.1 18:10:09 10° SSE 18:14:14 36° E 18:18:19 10° NNE
MTI 4.0 18:11:41 10° N 18:14:52 73° WNW 18:18:03 10° SSW
YAOGAN 1 3.6 18:11:29 10° S 18:15:41 52° W 18:19:56 10° NNW
Okean 3 3.8 18:12:33 10° N 18:16:29 40° E 18:20:26 10° SSE
Meteor 1-20 Rocket 4.5 18:11:54 10° SSE 18:17:18 47° E 18:22:49 10° NNE
Cosmos 1633 2.9 18:14:32 10° SSE 18:17:53 41° E 18:21:16 10° NNE
Cosmos 921 Rocket 4.4 18:17:24 10° NNE 18:20:41 20° ENE 18:23:43 11° ESE
Cosmos 1733 Rocket 3.3 18:16:30 10° SSW 18:20:47 71° W 18:25:06 10° N
ERS-2 2.8 18:18:03 10° SE 18:21:21 32° ENE 18:24:41 10° N
Cosmos 1812 2.6 18:24:22 10° N 18:28:14 70° E 18:32:05 10° SSE
ALOS 3.1 18:24:03 10° S 18:28:36 54° W 18:33:12 10° NNW
CENTAUR R/B 2.4 18:24:28 10° SSW 18:30:17 78° ESE 18:36:58 10° NE
Meteor 1-18 Rocket 4.3 18:30:38 10° N 18:36:07 55° ENE 18:41:32 10° SSE
SL-8 R/B 4.4 18:31:38 10° WSW 18:36:14 49° NNW 18:40:31 12° NE
Cosmos 2333 Rocket 4.3 18:32:13 10° NW 18:37:07 31° WSW 18:41:58 10° SSW
Cosmos 44 3.5 18:32:07 10° NNW 18:37:09 60° ENE 18:42:21 10° SE
Resurs 01 Rocket 3.2 18:42:38 17° NE 18:42:38 17° NE 18:44:44 10° NNE
Aureole 3 4.5 18:35:46 10° SSW 18:42:00 71° W 18:46:54 10° N
Cosmos 1975 Rocket 3.9 18:39:44 10° NNE 18:43:38 29° ENE 18:46:31 15° SE
Meteor 1-25 Rocket 4.2 18:39:15 10° S 18:44:47 89° W 18:50:23 10° N
Lacrosse 5 3.3 18:42:49 10° NW 18:47:29 39° WSW 18:52:08 10° SSE
Cosmos 1513 Rocket 4.5 18:41:27 10° N 18:47:46 66° E 18:53:55 10° SSE
SPOT 3 Rocket 4.1 18:42:46 10° S 18:47:54 62° WSW 18:53:04 10° NNW
Cosmos 1452 Rocket 3.5 18:43:25 10° NNW 18:48:42 90° WNW 18:53:57 10° SSE
Cosmos 1048 Rocket 3.9 18:46:36 10° SSW 18:51:56 81° ESE 18:57:15 10° NNE
Cosmos 158 Rocket 4.3 18:47:18 10° SSW 18:52:09 63° WNW 18:56:59 10° N
Meteor 1-11 Rocket 4.4 18:47:33 10° SSE 18:52:15 29° E 18:57:03 10° NNE
Cosmos 1437 Rocket 2.9 18:48:28 10° S 18:52:23 55° E 18:56:24 10° NNE
Iridium 4 Rocket 3.1 18:48:48 10° N 18:53:38 77° E 18:58:02 10° S
Geosat 4.5 18:51:12 17° NE 18:54:33 38° ESE 18:59:11 10° S
Cosmos 2227 4.4 18:51:57 10° S 18:57:27 49° ESE 19:02:56 10° NNE
Gbstr 26 Del rocket 2.9 18:54:34 10° SSW 18:58:06 45° SE 18:58:46 40° ESE
COSMOS 2455 3.6 18:53:53 10° SSE 18:58:55 28° ESE 18:59:33 28° E
CRYOSAT 2 4.4 18:54:21 10° NNE 18:59:08 55° E 19:03:53 10° S
Tsikada Rocket 4.0 18:57:17 10° S 19:03:34 62° E 19:09:53 10° NNE
Cosmos 1378 Rocket 3.9 19:02:51 10° NNW 19:07:14 68° W 19:11:38 10° S
Cosmos 1420 Rocket 4.2 19:04:00 10° NNW 19:09:17 73° WSW 19:14:33 10° S
Cosmos 1782 Rocket 3.5 19:07:25 10° S 19:11:52 85° W 19:16:19 10° N
Sich 1 Rocket 4.1 19:08:49 10° SSW 19:13:16 60° W 19:17:42 10° N
OAO 2 Rocket 3.2 19:18:48 10° WSW 19:23:43 71° S 19:24:26 60° ESE
Okean 2 Rocket 2.9 19:25:02 10° S 19:29:24 90° ENE 19:33:50 10° N
SJ-6B 3.8 19:29:34 10° S 19:33:09 44° W 19:36:50 10° NNW
SeaSat 1 2.3 19:32:53 49° SSE 19:34:16 88° WSW 19:39:15 10° NNW
ARGOS Delta rocket 4.3 19:29:40 10° N 19:34:26 60° WNW 19:38:55 10° SSW
Envisat 3.2 19:32:40 10° S 19:37:43 71° WSW 19:42:48 10° NNW
Tiangong 2 3.3 19:36:15 10° W 19:38:03 25° WSW 19:38:03 25° WSW
Thor Agena Rocket 4.4 19:37:09 10° N 19:42:02 47° WNW 19:46:50 10° SW
USA 215 3.8 19:37:21 19° NNE 19:42:02 54° NW 19:48:20 10° WSW
SL-16 R/B 3.7 19:41:41 10° NW 19:46:46 35° WSW 19:51:49 10° SSW
Meteor 1-13 Rocket 4.1 19:46:32 10° N 19:52:04 81° W 19:52:48 67° SSW
Cosmos 494 Rocket 4.1 19:50:35 10° SSW 19:55:48 71° WNW 19:55:49 71° WNW
Cosmos 1110 Rocket 4.5 19:50:49 10° NNW 19:54:46 52° N 19:54:46 52° N
Cosmos 1603 3.9 19:59:50 10° NNW 20:04:35 63° NW 20:04:35 63° NW
Cosmos 1634 Rocket 4.1 20:04:55 10° N 20:10:07 65° NNW 20:10:07 65° NNW
USA 267 3.9 20:14:32 41° N 20:14:32 41° N 20:19:31 10° NNW
Resurs 01 Rocket 3.8 20:20:12 23° NW 20:20:12 23° NW 20:22:06 10° NNW
Cosmos 2263 Rocket 4.2 20:17:54 10° SSW 20:19:05 17° SSW 20:19:05 17° SSW
CZ-4C R/B 3.7 20:18:01 10° NNW 20:22:50 39° N 20:22:50 39° N
CZ-3C R/B 3.9 20:21:18 10° SW 21:12:39 - ESE 20:25:19 31° S
COSMOS 2455 4.2 20:38:58 10° SW 20:42:51 33° W 20:42:51 33° W
